TimeEST,TemperatureF,Dew PointF,Humidity,Sea Level PressureIn,VisibilityMPH,Wind Direction,Wind SpeedMPH,Gust SpeedMPH,PrecipitationIn,Events,Conditions,WindDirDegrees,DateUTC
12:53 AM,24.1,19.0,81,30.04,10.0,Calm,Calm,-,N/A,,Clear,0,2012-12-23 05:53:00
1:53 AM,21.9,17.1,82,30.02,7.0,Calm,Calm,-,N/A,,Clear,0,2012-12-23 06:53:00
2:53 AM,21.9,17.1,82,29.99,9.0,Calm,Calm,-,N/A,,Clear,0,2012-12-23 07:53:00
3:53 AM,21.0,17.1,85,29.97,7.0,Calm,Calm,-,N/A,,Clear,0,2012-12-23 08:53:00
4:53 AM,19.9,16.0,85,29.94,7.0,Calm,Calm,-,N/A,,Clear,0,2012-12-23 09:53:00
5:53 AM,19.9,15.1,81,29.95,7.0,Calm,Calm,-,N/A,,Clear,0,2012-12-23 10:53:00
6:53 AM,19.0,15.1,85,29.95,7.0,Calm,Calm,-,N/A,,Clear,0,2012-12-23 11:53:00
7:53 AM,19.0,16.0,88,29.96,8.0,Calm,Calm,-,N/A,,Clear,0,2012-12-23 12:53:00
8:53 AM,21.0,19.0,92,29.97,7.0,Calm,Calm,-,N/A,,Clear,0,2012-12-23 13:53:00
9:53 AM,26.1,21.0,81,29.98,9.0,WSW,4.6,-,N/A,,Clear,250,2012-12-23 14:53:00
10:53 AM,30.0,21.9,72,29.99,10.0,Variable,3.5,-,N/A,,Clear,0,2012-12-23 15:53:00
11:53 AM,34.0,25.0,70,29.98,10.0,NNW,5.8,-,N/A,,Clear,330,2012-12-23 16:53:00
1:53 PM,37.0,26.1,65,29.97,10.0,NNW,4.6,-,N/A,,Partly Cloudy,340,2012-12-23 18:53:00
2:53 PM,39.0,27.0,62,29.96,10.0,Calm,Calm,-,N/A,,Clear,0,2012-12-23 19:53:00
3:53 PM,39.0,26.1,60,29.98,10.0,Calm,Calm,-,N/A,,Partly Cloudy,0,2012-12-23 20:53:00
4:53 PM,35.1,24.1,64,30.00,10.0,NNW,4.6,-,N/A,,Clear,330,2012-12-23 21:53:00
5:53 PM,32.0,21.9,66,30.01,10.0,North,3.5,-,N/A,,Clear,360,2012-12-23 22:53:00
6:53 PM,30.9,21.9,69,30.02,10.0,North,3.5,-,N/A,,Clear,360,2012-12-23 23:53:00
7:53 PM,30.9,24.1,76,30.04,10.0,NNE,6.9,-,N/A,,Clear,20,2012-12-24 00:53:00
8:53 PM,28.9,21.9,75,30.06,10.0,NNE,3.5,-,N/A,,Clear,20,2012-12-24 01:53:00
9:53 PM,28.0,21.9,78,30.05,10.0,ENE,3.5,-,N/A,,Clear,70,2012-12-24 02:53:00
10:53 PM,28.0,21.9,78,30.04,10.0,NE,3.5,-,N/A,,Clear,50,2012-12-24 03:53:00
11:53 PM,27.0,21.0,78,30.01,10.0,ENE,4.6,-,N/A,,Clear,60,2012-12-24 04:53:00